Arlington, TX

3:09 PM CDT on July 27, 2016 (GMT -0500)
Grand Prairie Municipal

Weather History for KGPM - March, 2014

Change the Weather History Date:

Friday, March 14, 2014

  Actual Average (KDFW) Record (KDFW)
Temperature  
Mean Temperature 58 °F 57 °F  
Max Temperature 71 °F 68 °F 92 °F (1989)
Min Temperature 46 °F 47 °F 26 °F (1988)
Degree Days  
Heating Degree Days 6 9  
Month to date heating degree days 145  
Since 1 July heating degree days 2077  
Cooling Degree Days 0 1  
Month to date cooling degree days 12  
Year to date cooling degree days 19  
Growing Degree Days 8 (Base 50)    
Moisture  
Dew Point 42 °F    
Average Humidity 56    
Maximum Humidity 76    
Minimum Humidity 41    
Precipitation  
Precipitation 0.00 in 0.12 in 1.01 in (1990)
Month to date precipitation 1.59  
Year to date precipitation 6.38  
Snow  
Snow 0.00 in 0.00 in 2.20 in (1962)
Month to date snowfall 0.1  
Since 1 July snowfall 1.5  
Snow Depth -    
Sea Level Pressure  
Sea Level Pressure 30.04 in    
Wind  
Wind Speed 9 mph (South)    
Max Wind Speed 17 mph    
Max Gust Speed 25 mph    
Visibility 10 miles    
Events      
T = Trace of Precipitation, MM = Missing Value Source: NWS Daily Summary

Daily Weather History Graph

Daily Weather History Graph

Search for Another Location

Airport or City:

Trip Planner

Search our weather history database for the weather conditions in past years. The results will help you decide how hot, cold, wet, or windy it might be!

Date:

Astronomy

Mar. 14, 2014 Rise Set
Actual Time 7:39 AM CDT 7:35 PM CDT
Civil Twilight 7:15 AM CDT 8:00 PM CDT
Nautical Twilight 6:46 AM CDT 8:28 PM CDT
Astronomical Twilight 6:17 AM CDT 8:57 PM CDT
Moon 6:02 PM CDT (3/14) 6:15 AM CDT (3/14)
Length of Visible Light 12h 44m
Length of Day
11h 55m
Waxing Gibbous, 96% of the Moon is Illuminated
Mar 14
Waxing Gibbous
Mar 16
Full
Mar 23
Last Quarter
Mar 30
New
Apr 7
First Quarter

Hourly Weather History & Observations

Time (CDT) Temp. Windchill Dew Point Humidity Pressure Visibility Wind Dir Wind Speed Gust Speed Precip Events Conditions
12:15 AM 53.6 °F - 30.2 °F 41% 30.09 in 10.0 mi South 11.5 mph 17.3 mph N/A   Clear
12:35 AM 53.6 °F - 30.2 °F 41% 30.08 in 10.0 mi South 9.2 mph - N/A   Clear
12:55 AM 53.6 °F - 30.2 °F 41% 30.08 in 10.0 mi South 9.2 mph - N/A   Clear
1:15 AM 51.8 °F - 30.2 °F 44% 30.08 in 10.0 mi South 5.8 mph - N/A   Clear
1:35 AM 51.8 °F - 30.2 °F 44% 30.07 in 10.0 mi South 5.8 mph - N/A   Clear
1:55 AM 51.8 °F - 30.2 °F 44% 30.07 in 10.0 mi SSW 8.1 mph - N/A   Clear
2:15 AM 51.8 °F - 30.2 °F 44% 30.07 in 10.0 mi South 9.2 mph - N/A   Clear
2:35 AM 51.8 °F - 30.2 °F 44% 30.07 in 10.0 mi SSW 10.4 mph 16.1 mph N/A   Clear
2:55 AM 50.0 °F - 32.0 °F 50% 30.08 in 10.0 mi SSW 8.1 mph - N/A   Clear
3:15 AM 50.0 °F - 32.0 °F 50% 30.09 in 10.0 mi SSW 9.2 mph - N/A   Clear
3:35 AM 50.0 °F - 32.0 °F 50% 30.08 in 10.0 mi SSW 13.8 mph 19.6 mph N/A   Clear
3:55 AM 50.0 °F - 32.0 °F 50% 30.07 in 10.0 mi SSW 10.4 mph - N/A   Clear
4:15 AM 50.0 °F - 33.8 °F 54% 30.06 in 10.0 mi South 10.4 mph - N/A   Clear
4:35 AM 50.0 °F - 33.8 °F 54% 30.05 in 10.0 mi South 8.1 mph - N/A   Clear
4:55 AM 50.0 °F - 35.6 °F 58% 30.04 in 10.0 mi South 6.9 mph - N/A   Clear
5:15 AM 50.0 °F - 37.4 °F 62% 30.05 in 10.0 mi South 9.2 mph - N/A   Clear
5:35 AM 48.2 °F - 37.4 °F 66% 30.05 in 10.0 mi South 9.2 mph - N/A   Clear
5:55 AM 48.2 °F - 37.4 °F 66% 30.04 in 10.0 mi South 10.4 mph - N/A   Clear
6:15 AM 48.2 °F - 37.4 °F 66% 30.05 in 10.0 mi South 6.9 mph - N/A   Clear
8:50 AM 46.4 °F 41.9 °F 39.2 °F 76% 30.08 in 10.0 mi South 9.2 mph - N/A   Clear
9:50 AM 53.6 °F - 44.6 °F 72% 30.08 in 10.0 mi South 9.2 mph - N/A   Clear
10:50 AM 57.2 °F - 48.2 °F 72% 30.10 in 10.0 mi South 9.2 mph 20.7 mph N/A   Overcast
11:50 AM 62.6 °F - 48.2 °F 59% 30.08 in 10.0 mi South 16.1 mph 25.3 mph N/A   Mostly Cloudy
12:50 PM 64.4 °F - 48.2 °F 56% 30.07 in 10.0 mi South 11.5 mph 23.0 mph N/A   Mostly Cloudy
1:50 PM 66.2 °F - 48.2 °F 52% 30.04 in 10.0 mi South 17.3 mph 24.2 mph N/A   Mostly Cloudy
3:50 PM 71.6 °F - 48.2 °F 43% 29.98 in 10.0 mi SSE 13.8 mph 208.3 mph N/A   Scattered Clouds
4:50 PM 71.6 °F - 48.2 °F 43% 29.97 in 10.0 mi South 10.4 mph 16.1 mph N/A   Scattered Clouds
5:50 PM 71.6 °F - 48.2 °F 43% 29.97 in 10.0 mi SSE 12.7 mph 16.1 mph N/A   Scattered Clouds
6:50 PM 69.8 °F - 48.2 °F 46% 29.97 in 10.0 mi SSE 5.8 mph - N/A   Clear
7:50 PM 66.2 °F - 48.2 °F 52% 29.99 in 10.0 mi SE 4.6 mph - N/A   Clear
8:15 PM 66.2 °F - 50.0 °F 56% 29.99 in 10.0 mi SE 6.9 mph - N/A   Clear
8:35 PM 64.4 °F - 50.0 °F 59% 29.99 in 10.0 mi SE 5.8 mph - N/A   Clear
8:50 PM 64.4 °F - 51.8 °F 64% 30.00 in 10.0 mi SE 5.8 mph - N/A   Clear
8:55 PM 64.4 °F - 50.0 °F 59% 29.99 in 10.0 mi SE 6.9 mph - N/A   Clear
9:15 PM 62.6 °F - 50.0 °F 63% 30.00 in 10.0 mi SE 5.8 mph - N/A   Clear
9:35 PM 62.6 °F - 51.8 °F 68% 30.01 in 10.0 mi SSE 6.9 mph - N/A   Clear
9:55 PM 62.6 °F - 51.8 °F 68% 30.01 in 10.0 mi SSE 5.8 mph - N/A   Clear
10:15 PM 62.6 °F - 51.8 °F 68% 30.01 in 10.0 mi SSE 5.8 mph - N/A   Clear
10:35 PM 62.6 °F - 51.8 °F 68% 30.01 in 10.0 mi SSE 6.9 mph - N/A   Clear
10:55 PM 62.6 °F - 51.8 °F 68% 30.01 in 10.0 mi SSE 6.9 mph - N/A   Clear
11:15 PM 62.6 °F - 50.0 °F 63% 30.01 in 10.0 mi SSE 5.8 mph - N/A   Clear
11:35 PM 62.6 °F - 51.8 °F 68% 30.01 in 10.0 mi SSE 6.9 mph - N/A   Clear